[[{"header":{"parameterUnit":"m.s-1","parameterCategory":1,"la1":30.2991,"la2":30.254,"lo1":-89.0895,"lo2":-89.0444,"dy":0.0017,"dx":0.0017,"nx":28,"ny":28,"refTime":"2023-09-18T21:00:00:Z","depth":0,"parameterNumber":2,"parameterNumberName":"U-component_of_WINDS"},"data":[0,0,0,0,0,0,0,0,0,0,0,0,0,0,0,0,0,0,0,0,0,0,0,0,0,0,0,0,0,0,0,0,0,0,0,0,0,0,0,0,0,0,0,0,0,0,0,0,0,0,0,0,0,0,0,0,0,0,-0.9866,-0.9866,0,-0.9846,-0.9846,-0.9846,-0.9779,-0.9778,-0.9776,-0.9775,-0.9756,-0.9757,-0.9758,0,0,0,0,0,0,0,0,0,0,0,0,0,-0.9847,-0.9848,-0.9866,-0.9866,-0.9865,-0.9846,-0.9846,-0.9846,-0.978,-0.9778,-0.9776,-0.9774,-0.9756,-0.9757,-0.9758,0,0,0,0,0,0,0,0,0,0,0,0,0,-0.9844,-0.9848,-0.9866,-0.983,-0.9827,-0.9846,-0.9846,-0.9846,-0.978,-0.9778,-0.9775,-0.9773,-0.9756,-0.9757,-0.9758,-0.9811,0,0,-0.9762,-0.9763,0,0,0,0,0,0,0,0,-0.9845,-0.9845,-0.9836,-0.9833,-0.9829,-0.9813,-0.9833,-0.9834,-0.9781,-0.9798,-0.9775,-0.9772,-0.9777,-0.9776,-0.9778,-0.9811,-0.981,-0.9762,-0.9763,-0.9764,-0.9764,0,0,0,0,0,0,0,-0.9845,-0.9846,-0.9858,-0.9836,-0.9831,-0.9815,-0.9812,-0.9833,-0.98,-0.9796,-0.9791,-0.979,-0.9775,-0.9777,-0.9777,-0.9809,-0.9762,-0.9764,-0.9764,-0.9765,-0.9886,-0.9889,0,0,0,0,0,0,-0.985,-0.9846,-0.9859,-0.9857,-0.9831,-0.9818,-0.9814,-0.982,-0.98,-0.9795,-0.9792,-0.9787,-0.9775,-0.9775,-0.9776,-0.9838,-0.9764,-0.9765,-0.9766,-0.9884,-0.9887,-0.989,0,0,0,0,0,0,-0.985,-0.9852,-0.9859,-0.9851,-0.985,-0.982,-0.9828,-0.9821,-0.9823,-0.9796,-0.979,-0.98,-0.9774,-0.9774,-0.9803,-0.9837,-0.9766,-0.9767,-0.9881,-0.9885,-0.9888,-0.9963,0,0,0,0,0,0,-0.985,-0.9852,-0.9872,-0.9851,-0.9851,-0.9887,-0.9829,-0.9822,-0.9825,-0.9819,-0.9802,-0.9797,-0.9772,-0.9802,-0.9805,-0.9837,-0.9768,-0.9878,-0.9883,-0.9887,-0.9957,-0.9969,-0.9978,0,0,0,0,0,-0.9849,-0.9894,-0.9873,-0.9875,-0.9875,-0.9889,-0.9889,-0.9858,-0.9828,-0.9848,-0.9831,-0.9798,-0.9832,-0.9805,-0.9808,-0.9842,-0.9876,-0.9881,-0.9887,-0.9953,-0.9966,-0.9978,0,0,0,0,0,0,-0.9919,-0.989,-0.9867,-0.9906,-0.9901,-0.9878,-0.9902,-0.9874,-0.9877,-0.9871,-0.9833,-0.983,-0.9865,-0.9855,-0.9826,-0.9893,-0.9848,-0.9855,-0.9898,-0.9911,-0.9921,-0.9923,-0.9769,0,0,0,0,0,-0.9939,-0.9953,-0.9927,-0.9964,-0.9962,-0.9933,-0.9938,-0.9914,-0.9907,-0.9905,-0.989,-0.9885,-0.9894,-0.9901,-0.9909,-0.9955,-0.9951,-0.9979,-0.999,-0.9999,-1.0005,-1.0031,-1.0043,-0.9907,-0.9907,-0.9907,0,0,-0.998,-0.9966,-0.9977,-0.9977,-0.997,-0.9986,-0.9931,-0.995,-0.9961,-0.9908,-0.9935,-0.9924,-0.9915,-0.9954,-0.997,-0.9948,-1.0042,-1.0005,-1.0013,-1.0014,-1.0038,-1.005,-1.0062,-0.9911,-0.991,-0.991,0,0,-1.0064,-1.0054,-1.0085,-1.0079,-1.0068,-1.0049,-1.0056,-1.0038,-1.0028,-1.0055,-1.0015,-1.0028,-1.0045,-1.0041,-1.0042,-1.0124,-1.0095,-1.0127,-1.0183,-1.0208,-1.0219,-1.0228,-1.026,-1.0271,-1.0133,-1.0134,-1.0134,0,-1.0117,-1.0139,-1.0104,-1.0126,-1.0127,-1.0079,-1.011,-1.0106,-1.0099,-1.0102,-1.0076,-1.0097,-1.0087,-1.0125,-1.0145,-1.0146,-1.0155,-1.013,-1.022,-1.0229,-1.0237,-1.0267,-1.0279,-1.0138,-1.0137,-1.0137,-1.0137,0,-1.0206,-1.0221,-1.0247,-1.0242,-1.0246,-1.0272,-1.0242,-1.025,-1.0227,-1.021,-1.0238,-1.0225,-1.023,-1.0236,-1.0213,-1.0271,-1.0258,-1.0227,-1.0182,-1.0255,-1.0283,-1.0293,-1.0144,-1.0142,-1.0141,-1.014,0,0,-1.0335,-1.0309,-1.0319,-1.0317,-1.0302,-1.0314,-1.0338,-1.0342,-1.0351,-1.0347,-1.0368,-1.0383,-1.0354,-1.0355,-1.0331,-1.0353,-1.0421,-1.0319,-1.0318,-1.034,-1.0487,-1.0512,-1.0526,-1.04,-1.0402,-1.0404,-1.0488,0,-1.0416,-1.0456,-1.0425,-1.0471,-1.0486,-1.044,-1.0461,-1.0455,-1.044,-1.045,-1.0433,-1.0446,-1.0406,-1.0406,-1.0425,-1.0409,-1.0451,-1.0402,-1.0421,-1.0422,-1.0427,-1.054,-1.0566,-1.0647,-1.0498,-1.05,-1.0501,0,-1.0517,-1.0518,-1.0566,-1.0549,-1.0554,-1.0573,-1.0575,-1.0585,-1.0577,-1.0565,-1.0566,-1.0536,-1.0559,-1.0514,-1.0546,-1.0514,-1.0519,-1.0513,-1.0515,-1.0517,-1.0468,-1.0548,-1.0671,-1.0684,-1.0517,-1.0516,-1.0515,0,-1.0609,-1.0622,-1.0653,-1.0652,-1.0632,-1.0647,-1.064,-1.0629,-1.0634,-1.0635,-1.0638,-1.0642,-1.0645,-1.0649,-1.0622,-1.0591,-1.0659,-1.0611,-1.0651,-1.0652,-1.0669,-1.0669,-1.0798,-1.0669,-1.0669,-1.0668,-1.0668,0,-1.0705,-1.0737,-1.0694,-1.0714,-1.0748,-1.0712,-1.0747,-1.0734,-1.0725,-1.0742,-1.0701,-1.0718,-1.0679,-1.0692,-1.067,-1.0702,-1.0702,-1.0694,-1.0689,-1.0699,-1.0701,-1.0704,-1.0699,-1.0671,-1.0671,-1.067,-1.067,0,-1.0815,-1.0787,-1.0818,-1.0797,-1.0792,-1.0818,-1.08,-1.0818,-1.0799,-1.0821,-1.0823,-1.0795,-1.0808,-1.078,-1.0789,-1.0774,-1.082,-1.0804,-1.0823,-1.0819,-1.0862,-1.0859,-1.1,-1.1017,-1.0875,-1.0876,-1.0877,0,-1.0879,-1.0902,-1.0883,-1.0891,-1.0886,-1.0899,-1.0904,-1.0869,-1.0875,-1.0868,-1.0887,-1.0896,-1.0902,-1.0925,-1.0905,-1.0912,-1.0898,-1.0947,-1.0899,-1.091,-1.0902,-1.0902,-1.0905,-1.0957,-1.0959,-1.0961,-1.0962,0,-1.0997,-1.0982,-1.099,-1.0994,-1.1,-1.1002,-1.1,-1.1009,-1.0972,-1.0981,-1.0994,-1.0998,-1.1007,-1.1018,-1.102,-1.1013,-1.0983,-1.0976,-1.0987,-1.0999,-1.101,-1.1007,-1.0853,-1.0974,-1.0973,-1.0972,-1.0971,-1.0971,-1.1087,-1.1106,-1.1096,-1.1107,-1.1102,-1.1101,-1.1117,-1.11,-1.111,-1.1115,-1.1093,-1.1111,-1.1103,-1.1103,-1.1099,-1.1113,-1.1091,-1.1105,-1.1109,-1.1114,-1.1122,-1.1006,-1.1112,-1.1112,-1.1112,-1.1111,-1.1111,0,-1.1205,-1.1196,-1.1206,-1.1205,-1.1214,-1.1182,-1.1179,-1.1189,-1.1205,-1.1199,-1.1206,-1.1221,-1.1231,-1.1212,-1.1219,-1.1234,-1.122,-1.1237,-1.1237,-1.1236,-1.114,-1.1131,-1.1248,-1.1248,-1.1248,-1.1248,-1.1248,-1.1248,-1.1268,-1.1299,-1.1283,-1.1312,-1.1302,-1.1319,-1.1321,-1.132,-1.1316,-1.1334,-1.1342,-1.133,-1.1319,-1.1325,-1.1333,-1.1327,-1.1333,-1.1356,-1.1346,-1.1256,-1.1243,-1.123,-1.1222,-1.1357,-1.1357,-1.1442,-1.1442,-1.1443]},{"header":{"parameterUnit":"m.s-1","parameterCategory":1,"la1":30.2991,"la2":30.254,"lo1":-89.0895,"lo2":-89.0444,"dy":0.0017,"dx":0.0017,"nx":28,"ny":28,"refTime":"2023-09-18T21:00:00:Z","depth":0,"parameterNumber":3,"parameterNumberName":"V-component_of_WINDS"},"data":[0,0,0,0,0,0,0,0,0,0,0,0,0,0,0,0,0,0,0,0,0,0,0,0,0,0,0,0,0,0,0,0,0,0,0,0,0,0,0,0,0,0,0,0,0,0,0,0,0,0,0,0,0,0,0,0,0,0,-2.3735,-2.3736,0,-2.3798,-2.3799,-2.38,-2.3772,-2.3771,-2.3769,-2.3768,-2.383,-2.3833,-2.3836,0,0,0,0,0,0,0,0,0,0,0,0,0,-2.3589,-2.3592,-2.3735,-2.3736,-2.3737,-2.3798,-2.3799,-2.38,-2.3772,-2.3771,-2.3769,-2.3767,-2.3829,-2.3833,-2.3837,0,0,0,0,0,0,0,0,0,0,0,0,0,-2.3652,-2.3593,-2.3735,-2.373,-2.3731,-2.3798,-2.3799,-2.38,-2.3773,-2.3771,-2.3768,-2.3766,-2.3828,-2.3833,-2.3837,-2.3912,0,0,-2.3851,-2.3853,0,0,0,0,0,0,0,0,-2.3649,-2.3658,-2.373,-2.3731,-2.3731,-2.3775,-2.377,-2.3837,-2.3773,-2.3757,-2.3768,-2.3765,-2.3814,-2.3819,-2.3836,-2.3915,-2.3917,-2.3852,-2.3855,-2.3857,-2.3858,0,0,0,0,0,0,0,-2.3645,-2.3655,-2.376,-2.3731,-2.3732,-2.3725,-2.3731,-2.3783,-2.3797,-2.3758,-2.3756,-2.3764,-2.3813,-2.3832,-2.3837,-2.3918,-2.3852,-2.3856,-2.3859,-2.386,-2.4063,-2.4065,0,0,0,0,0,0,-2.364,-2.3651,-2.3758,-2.3762,-2.3684,-2.3729,-2.3736,-2.3763,-2.3797,-2.38,-2.3766,-2.3763,-2.3825,-2.3832,-2.3839,-2.393,-2.3856,-2.3861,-2.3863,-2.406,-2.4063,-2.4066,0,0,0,0,0,0,-2.3637,-2.365,-2.3755,-2.3706,-2.3719,-2.3734,-2.3765,-2.3766,-2.3784,-2.3803,-2.3805,-2.3782,-2.3823,-2.3833,-2.3894,-2.3932,-2.3863,-2.3867,-2.4057,-2.4061,-2.4065,-2.4112,0,0,0,0,0,0,-2.3633,-2.3649,-2.3678,-2.3707,-2.3722,-2.381,-2.3767,-2.3769,-2.3792,-2.3789,-2.3819,-2.3821,-2.3822,-2.3888,-2.3899,-2.3937,-2.3871,-2.4054,-2.4059,-2.4063,-2.4107,-2.4117,-2.4126,0,0,0,0,0,-2.3628,-2.3688,-2.368,-2.3693,-2.3758,-2.3812,-2.3821,-2.3821,-2.3795,-2.3825,-2.3837,-2.382,-2.3926,-2.3894,-2.3907,-2.3947,-2.4051,-2.4057,-2.4063,-2.4103,-2.4115,-2.4126,0,0,0,0,0,0,-2.3663,-2.3692,-2.3683,-2.3754,-2.3781,-2.3808,-2.3844,-2.3834,-2.3868,-2.3863,-2.3861,-2.3868,-2.3932,-2.3945,-2.391,-2.4022,-2.3985,-2.3993,-2.4011,-2.4023,-2.4032,-2.4028,-2.3875,0,0,0,0,0,-2.3679,-2.372,-2.3744,-2.3804,-2.3818,-2.3829,-2.3853,-2.3851,-2.3878,-2.3889,-2.3906,-2.3932,-2.3972,-2.3997,-2.4034,-2.4109,-2.4115,-2.4143,-2.4152,-2.4159,-2.4167,-2.4208,-2.4221,-2.4085,-2.4085,-2.4085,0,0,-2.3712,-2.3733,-2.3759,-2.3812,-2.3832,-2.3876,-2.3839,-2.3886,-2.3918,-2.3896,-2.3956,-2.3969,-2.3998,-2.4067,-2.4098,-2.408,-2.4206,-2.4167,-2.4172,-2.4176,-2.4216,-2.4229,-2.424,-2.4089,-2.4088,-2.4088,0,0,-2.3795,-2.3815,-2.3869,-2.389,-2.3922,-2.3929,-2.3942,-2.397,-2.3979,-2.4039,-2.4023,-2.4061,-2.4128,-2.4151,-2.4171,-2.4263,-2.425,-2.4275,-2.4323,-2.4364,-2.4375,-2.4384,-2.4418,-2.4431,-2.4282,-2.4282,-2.4283,0,-2.3832,-2.3898,-2.3897,-2.3946,-2.397,-2.3953,-2.4007,-2.4028,-2.407,-2.4087,-2.4066,-2.4151,-2.4169,-2.4244,-2.4266,-2.4283,-2.4298,-2.4272,-2.4373,-2.4383,-2.4391,-2.4424,-2.4437,-2.4285,-2.4285,-2.4285,-2.4285,0,-2.3943,-2.3988,-2.4027,-2.407,-2.4098,-2.4149,-2.4156,-2.4184,-2.418,-2.4189,-2.4251,-2.4272,-2.4314,-2.4331,-2.4327,-2.4405,-2.4393,-2.4373,-2.4336,-2.4408,-2.4438,-2.4451,-2.429,-2.4289,-2.4288,-2.4287,0,0,-2.405,-2.4092,-2.4107,-2.4126,-2.4161,-2.4196,-2.4246,-2.4288,-2.4313,-2.4342,-2.4385,-2.4442,-2.4424,-2.4447,-2.4445,-2.448,-2.4553,-2.4455,-2.4456,-2.4474,-2.4643,-2.4659,-2.4674,-2.4544,-2.4546,-2.4548,-2.4641,0,-2.4137,-2.4227,-2.4228,-2.431,-2.4353,-2.4337,-2.4381,-2.4407,-2.4416,-2.4453,-2.4463,-2.4505,-2.4477,-2.4491,-2.4525,-2.4537,-2.4587,-2.453,-2.4584,-2.4586,-2.4579,-2.469,-2.4707,-2.4793,-2.4653,-2.4655,-2.4656,0,-2.4251,-2.4286,-2.4373,-2.4402,-2.442,-2.4459,-2.4498,-2.4534,-2.4562,-2.4567,-2.4593,-2.4586,-2.4637,-2.4598,-2.4669,-2.463,-2.4652,-2.4661,-2.4664,-2.4671,-2.4627,-2.47,-2.482,-2.4834,-2.4675,-2.4673,-2.4672,0,-2.4323,-2.4391,-2.4452,-2.4469,-2.4504,-2.4533,-2.4548,-2.4575,-2.46,-2.4634,-2.465,-2.4689,-2.471,-2.474,-2.4744,-2.4714,-2.4816,-2.4776,-2.4821,-2.4821,-2.4845,-2.4843,-2.4972,-2.4856,-2.4856,-2.4856,-2.4855,0,-2.4421,-2.4475,-2.4485,-2.4523,-2.4583,-2.4584,-2.4643,-2.4656,-2.468,-2.472,-2.4708,-2.4745,-2.4747,-2.4785,-2.4788,-2.4847,-2.4856,-2.4862,-2.4862,-2.4864,-2.4864,-2.488,-2.4874,-2.4859,-2.4858,-2.4858,-2.4857,0,-2.4512,-2.452,-2.4587,-2.4615,-2.4623,-2.4666,-2.469,-2.4726,-2.4734,-2.4785,-2.4797,-2.481,-2.4855,-2.4861,-2.4913,-2.4915,-2.4987,-2.498,-2.4978,-2.4977,-2.5023,-2.5019,-2.5167,-2.5187,-2.5057,-2.5058,-2.5059,0,-2.4575,-2.4616,-2.4649,-2.4676,-2.4694,-2.4736,-2.4762,-2.4764,-2.4792,-2.4828,-2.486,-2.4903,-2.4939,-2.5011,-2.5025,-2.5064,-2.5059,-2.5109,-2.5065,-2.5066,-2.5062,-2.5061,-2.5065,-2.5117,-2.5119,-2.512,-2.5121,0,-2.4686,-2.4688,-2.4727,-2.4768,-2.48,-2.4832,-2.4862,-2.4884,-2.4889,-2.4921,-2.4967,-2.4995,-2.5048,-2.5092,-2.5132,-2.5147,-2.5136,-2.5134,-2.5147,-2.515,-2.5148,-2.5152,-2.5002,-2.5131,-2.513,-2.5129,-2.5129,-2.5128,-2.4766,-2.4803,-2.4832,-2.4876,-2.4899,-2.4928,-2.4963,-2.4977,-2.5016,-2.506,-2.5058,-2.511,-2.5137,-2.519,-2.5208,-2.5248,-2.5232,-2.525,-2.5255,-2.526,-2.5265,-2.514,-2.5255,-2.5254,-2.5254,-2.5254,-2.5254,0,-2.4878,-2.4896,-2.4937,-2.498,-2.5015,-2.5001,-2.5033,-2.5063,-2.5109,-2.5136,-2.5171,-2.5225,-2.5267,-2.5285,-2.5326,-2.5355,-2.5351,-2.5366,-2.5365,-2.5369,-2.5276,-2.5262,-2.5369,-2.5369,-2.5369,-2.5369,-2.5369,-2.5369,-2.4941,-2.5003,-2.5009,-2.5083,-2.51,-2.5151,-2.5171,-2.5197,-2.522,-2.528,-2.5316,-2.5327,-2.5351,-2.5394,-2.5433,-2.5437,-2.5453,-2.5472,-2.5473,-2.5387,-2.5375,-2.5364,-2.5351,-2.5475,-2.5475,-2.5563,-2.5564,-2.5564]}]]